Weather History for HTDA - January, 2013

Change the Weather History Date:

Tuesday, January 22, 2013

  Actual Average Record
Temperature  
Mean Temperature 76 °F -  
Max Temperature 91 °F 86 °F 93 °F (2014)
Min Temperature 61 °F 76 °F 61 °F (2013)
Cooling Degree Days 11    
Growing Degree Days 26 (Base 50)    
Moisture  
Dew Point 76 °F    
Average Humidity 75    
Maximum Humidity 94    
Minimum Humidity 53    
Precipitation  
Precipitation 0.00 in 0.08 in - ()
Sea Level Pressure  
Sea Level Pressure 29.87 in    
Wind  
Wind Speed 13 mph ()    
Max Wind Speed 21 mph    
Max Gust Speed -    
Visibility 10.3 miles    
Events      
Averages and records for this station are not official NWS values.
T = Trace of Precipitation, MM = Missing Value Source: Averaged Metar Reports

Daily Weather History Graph

Daily Weather History Graph

Search for Another Location

Airport or City:

Trip Planner

Search our weather history database for the weather conditions in past years. The results will help you decide how hot, cold, wet, or windy it might be!

Date:

Astronomy

Jan. 22, 2013 Rise Set
Actual Time 6:21 AM EAT 6:48 PM EAT
Civil Twilight 5:59 AM EAT 7:10 PM EAT
Nautical Twilight 5:33 AM EAT 7:36 PM EAT
Astronomical Twilight 5:06 AM EAT 8:02 PM EAT
Moon 3:03 PM EAT (1/22) 2:17 AM EAT (1/22)
Length of Visible Light 13h 11m
Length of Day
12h 26m
Waxing Gibbous, 80% of the Moon is Illuminated
Jan 22
Waxing Gibbous
Jan 27
Full
Feb 3
Last Quarter
Feb 10
New
Feb 17
First Quarter

Hourly Weather History & Observations

Time (EAT) Temp. Heat Index Dew Point Humidity Pressure Visibility Wind Dir Wind Speed Gust Speed Precip Events Conditions
12:00 AM 81 °F - 77 °F 83% 29.90 in 19 mi NNE 13.8 mph - -   Mostly Cloudy
3:00 AM 80 °F - 76 °F 86% 29.86 in 19 mi NNE 17.3 mph - -   Mostly Cloudy
6:00 AM 80 °F - 76 °F 84% 29.88 in 19 mi NNE 9.2 mph - -   Partly Cloudy
6:00 AM 78.8 °F - 77.0 °F 94% 29.86 in 6.2 mi NNE 9.2 mph - N/A   Scattered Clouds
7:00 AM 78.8 °F - 75.2 °F 89% 29.86 in 6.2 mi NNE 11.5 mph - N/A   Scattered Clouds
8:00 AM 82.4 °F 89.5 °F 75.2 °F 79% 29.89 in 6.2 mi NNE 11.5 mph - N/A   Mostly Cloudy
9:00 AM 83 °F - 77 °F 76% 29.93 in 19 mi North 17.3 mph - -   Mostly Cloudy
9:00 AM 84.2 °F 94.1 °F 77.0 °F 79% 29.92 in 6.2 mi North 17.3 mph - N/A   Mostly Cloudy
11:00 AM 87.8 °F 99.7 °F 77.0 °F 70% 29.92 in 6.2 mi North 18.4 mph - N/A   Mostly Cloudy
12:00 PM 90 °F - 76 °F 56% 29.91 in 19 mi North 20.7 mph - -   Mostly Cloudy
12:00 PM 89.6 °F 102.2 °F 77.0 °F 66% 29.89 in 6.2 mi North 20.7 mph - N/A   Mostly Cloudy
1:00 PM 89.6 °F 99.8 °F 75.2 °F 62% 29.89 in 6.2 mi North 18.4 mph - N/A   Mostly Cloudy
2:00 PM 91.4 °F 102.5 °F 75.2 °F 59% 29.86 in 6.2 mi North 17.3 mph - N/A   Mostly Cloudy
3:00 PM 91 °F - 76 °F 53% 29.84 in 19 mi North 15.0 mph - -   Mostly Cloudy
3:00 PM 91.4 °F 102.5 °F 75.2 °F 59% 29.83 in 6.2 mi North 15.0 mph - N/A   Mostly Cloudy
4:00 PM 87.8 °F 99.7 °F 77.0 °F 70% 29.80 in 6.2 mi ENE 16.1 mph - N/A   Mostly Cloudy
5:00 PM 86.0 °F 95.1 °F 75.2 °F 70% 29.80 in 6.2 mi NNE 17.3 mph - N/A   Mostly Cloudy
6:00 PM 85 °F - 76 °F 68% 29.82 in 19 mi NNE 13.8 mph - -   Partly Cloudy
6:00 PM 86.0 °F 95.1 °F 75.2 °F 70% 29.80 in 6.2 mi NNE 13.8 mph - N/A   Scattered Clouds
7:00 PM 82.4 °F 89.5 °F 75.2 °F 79% 29.83 in 6.2 mi ENE 17.3 mph - N/A   Scattered Clouds
8:00 PM 82.4 °F 89.5 °F 75.2 °F 79% 29.83 in 6.2 mi ENE 11.5 mph - N/A   Mostly Cloudy
9:00 PM 82 °F - 77 °F 79% 29.88 in 19 mi NNE 16.1 mph - -   Mostly Cloudy
9:00 PM 82.4 °F 90.9 °F 77.0 °F 84% 29.86 in 6.2 mi NNE 16.1 mph - N/A   Mostly Cloudy
10:00 PM 82.4 °F 90.9 °F 77.0 °F 84% 29.89 in 6.2 mi NNE 15.0 mph - N/A   Mostly Cloudy
11:00 PM 80.6 °F 87.1 °F 77.0 °F 89% 29.89 in 6.2 mi NNE 17.3 mph - N/A   Mostly Cloudy